| time (UTC) | temp F | wind direction | speed knots | gust knots | rain 1hr in | rain 24hr in | rain mn in | humidity % | barometer mb |
| 20260502200533 | 78 | 23 | 5.2 | 12.2 | 0.00 | 0.87 | 0.00 | 49 | 1018.5 |
| 20260502200029 | 79 | 28 | 5.2 | 12.2 | 0.00 | 0.88 | 0.00 | 47 | 1018.6 |
| 20260502195529 | 79 | 8 | 5.2 | 13.0 | 0.00 | 0.88 | 0.00 | 49 | 1018.6 |
| 20260502195507 | 79 | 22 | 3.5 | 13.0 | 0.00 | 0.88 | 0.00 | 49 | 1018.8 |
| 20260502194730 | 78 | 14 | 3.5 | 12.2 | 0.00 | 0.90 | 0.00 | 50 | 1018.7 |
| 20260502193930 | 78 | 291 | 6.1 | 15.6 | 0.00 | 0.90 | 0.00 | 50 | 1018.8 |
| 20260502193635 | 77 | 10 | 7.0 | 15.6 | 0.00 | 0.90 | 0.00 | 50 | 1019.1 |
| 20260502193108 | 77 | 359 | 7.8 | 13.9 | 0.00 | 0.92 | 0.00 | 49 | 1019.1 |
| 20260502192333 | 77 | 4 | 6.1 | 13.0 | 0.00 | 0.94 | 0.00 | 50 | 1019.1 |
| 20260502192039 | 77 | 56 | 6.1 | 12.2 | 0.00 | 0.94 | 0.00 | 51 | 1019.2 |
| 20260502191242 | 76 | 339 | 7.8 | 15.6 | 0.00 | 0.94 | 0.00 | 52 | 1019.2 |
| 20260502191008 | 76 | 354 | 8.7 | 15.6 | 0.00 | 0.94 | 0.00 | 52 | 1019.1 |
| 20260502190217 | 76 | 19 | 8.7 | 15.6 | 0.00 | 0.94 | 0.00 | 49 | 1019.1 |
| 20260502185647 | 76 | 14 | 8.7 | 15.6 | 0.00 | 0.95 | 0.00 | 51 | 1019.2 |
| 20260502185119 | 76 | 41 | 7.8 | 15.6 | 0.00 | 1.01 | 0.00 | 50 | 1019.3 |
| 20260502184853 | 77 | 27 | 7.0 | 15.6 | 0.00 | 1.28 | 0.00 | 51 | 1019.3 |
| 20260502184049 | 76 | 12 | 7.0 | 14.8 | 0.00 | 1.37 | 0.00 | 52 | 1019.4 |
| 20260502183551 | 76 | 34 | 6.1 | 14.8 | 0.00 | 1.37 | 0.00 | 51 | 1019.4 |
| 20260502183019 | 76 | 345 | 6.1 | 14.8 | 0.00 | 1.38 | 0.00 | 53 | 1019.4 |
| 20260502182516 | 76 | 341 | 6.1 | 14.8 | 0.00 | 1.41 | 0.00 | 51 | 1019.5 |
| 20260502182017 | 76 | 15 | 6.1 | 14.8 | 0.00 | 1.48 | 0.00 | 52 | 1019.7 |
| 20260502181510 | 75 | 12 | 6.1 | 14.8 | 0.00 | 1.61 | 0.00 | 53 | 1019.7 |
| 20260502180953 | 74 | 30 | 7.0 | 14.8 | 0.00 | 1.70 | 0.00 | 53 | 1019.8 |
| 20260502180423 | 74 | 11 | 8.7 | 20.9 | 0.00 | 1.73 | 0.00 | 53 | 1019.9 |
| 20260502180418 | 74 | 51 | 8.7 | 14.8 | 0.00 | 1.73 | 0.00 | 53 | 1019.9 |
| 20260502170124 | 72 | 345 | 8.7 | 17.4 | 0.00 | 1.80 | 0.00 | 61 | 1020.2 |
| 20260502164033 | 71 | 55 | 7.0 | 14.8 | 0.00 | 1.80 | 0.00 | 63 | 1020.1 |
| 20260502163737 | 71 | 12 | 8.7 | 14.8 | 0.00 | 1.81 | 0.00 | 65 | 1020.2 |
| 20260502163218 | 71 | 4 | 8.7 | 18.2 | 0.00 | 1.83 | 0.00 | 64 | 1020.2 |
| 20260502162421 | 70 | 43 | 7.8 | 18.2 | 0.00 | 1.91 | 0.00 | 63 | 1020.2 |
| 20260502162148 | 70 | 354 | 7.8 | 14.8 | 0.00 | 1.95 | 0.00 | 66 | 1020.1 |
| 20260502161625 | 70 | 354 | 7.0 | 15.6 | 0.00 | 1.98 | 0.00 | 67 | 1020.2 |
| 20260502160852 | 70 | 4 | 7.0 | 16.5 | 0.00 | 2.02 | 0.00 | 67 | 1020.1 |
| 20260502160622 | 70 | 338 | 7.8 | 16.5 | 0.00 | 2.06 | 0.00 | 67 | 1020.0 |
| 20260502152257 | 67 | 4 | 7.0 | 13.9 | 0.00 | 2.07 | 0.00 | 76 | 1020.0 |
| 20260502152011 | 66 | 23 | 6.1 | 13.0 | 0.00 | 2.07 | 0.00 | 76 | 1020.0 |
| 20260502151511 | 66 | 4 | 7.0 | 15.6 | 0.00 | 2.07 | 0.00 | 77 | 1020.0 |
| 20260502151314 | 65 | 48 | 7.0 | 15.6 | 0.00 | 2.07 | 0.00 | 77 | 1020.0 |
| 20260502150451 | 65 | 354 | 6.1 | 13.9 | 0.00 | 2.07 | 0.00 | 79 | 1020.0 |
| 20260502130743 | 57 | 4 | 3.5 | 10.4 | 0.00 | 2.14 | 0.00 | 95 | 1018.7 |
| 20260502130240 | 56 | 22 | 4.3 | 10.4 | 0.00 | 2.15 | 0.00 | 95 | 1018.7 |
| 20260502123621 | 55 | 37 | 3.5 | 9.6 | 0.00 | 2.15 | 0.00 | 97 | 1018.4 |
| 20260502123028 | 55 | 17 | 3.5 | 8.7 | 0.00 | 2.15 | 0.00 | 97 | 1018.2 |
| 20260502122501 | 54 | 349 | 3.5 | 9.6 | 0.00 | 2.16 | 0.00 | 97 | 1018.1 |
| 20260502121934 | 54 | 13 | 4.3 | 9.6 | 0.00 | 2.16 | 0.00 | 97 | 1018.0 |
| 20260502121431 | 54 | 16 | 4.3 | 8.7 | 0.00 | 2.16 | 0.00 | 97 | 1018.0 |
| 20260502120909 | 53 | 11 | 3.5 | 7.8 | 0.00 | 2.16 | 0.00 | 97 | 1018.0 |
| 20260502120402 | 53 | 4 | 2.6 | 7.0 | 0.00 | 2.16 | 0.00 | 97 | 1018.2 |
| 20260502115834 | 53 | 4 | 2.6 | 7.0 | 0.00 | 2.16 | 0.00 | 97 | 1018.0 |
| 20260502115334 | 53 | 23 | 2.6 | 7.0 | 0.00 | 2.16 | 0.00 | 96 | 1018.0 |
| 20260502114811 | 53 | 359 | 1.7 | 7.0 | 0.00 | 2.16 | 0.00 | 96 | 1018.0 |
| 20260502114300 | 53 | 15 | 0.9 | 5.2 | 0.00 | 2.16 | 0.00 | 96 | 1018.0 |
| 20260502113757 | 53 | 15 | 2.6 | 7.0 | 0.00 | 2.16 | 0.00 | 96 | 1017.8 |
| 20260502113232 | 53 | 14 | 2.6 | 7.0 | 0.00 | 2.16 | 0.00 | 96 | 1017.8 |
| 20260502112704 | 53 | 23 | 2.6 | 8.7 | 0.00 | 2.16 | 0.00 | 96 | 1017.7 |
| 20260502112433 | 53 | 348 | 3.5 | 8.7 | 0.00 | 2.16 | 0.00 | 96 | 1017.5 |
| 20260502112314 | 53 | 4 | 3.5 | 8.7 | 0.00 | 2.16 | 0.00 | 96 | 1017.5 |
| 20260502111153 | 53 | 18 | 4.3 | 9.6 | 0.00 | 2.16 | 0.00 | 96 | 1017.4 |
| 20260502110627 | 53 | 354 | 4.3 | 9.6 | 0.00 | 2.16 | 0.00 | 96 | 1017.3 |
| 20260502110123 | 54 | 30 | 3.5 | 8.7 | 0.00 | 2.17 | 0.00 | 96 | 1017.3 |
| 20260502105556 | 54 | 22 | 2.6 | 8.7 | 0.00 | 2.17 | 0.00 | 96 | 1017.2 |
| 20260502105055 | 54 | 10 | 2.6 | 6.1 | 0.00 | 2.17 | 0.00 | 96 | 1017.2 |
| 20260502104528 | 54 | 8 | 3.5 | 8.7 | 0.00 | 2.17 | 0.00 | 96 | 1017.2 |
| 20260502104024 | 54 | 25 | 3.5 | 8.7 | 0.00 | 2.17 | 0.00 | 96 | 1017.1 |
| 20260502103458 | 54 | 17 | 3.5 | 8.7 | 0.00 | 2.17 | 0.00 | 96 | 1017.0 |
| 20260502102934 | 54 | 354 | 4.3 | 8.7 | 0.00 | 2.18 | 0.00 | 95 | 1017.0 |
| 20260502102410 | 54 | 16 | 3.5 | 8.7 | 0.00 | 2.20 | 0.00 | 95 | 1017.0 |
| 20260502101845 | 54 | 341 | 2.6 | 8.7 | 0.00 | 2.23 | 0.00 | 95 | 1017.0 |
| 20260502101345 | 54 | 16 | 1.7 | 7.0 | 0.00 | 2.27 | 0.00 | 95 | 1016.9 |
| 20260502100831 | 54 | 11 | 1.7 | 7.0 | 0.00 | 2.27 | 0.00 | 95 | 1016.6 |
| 20260502100338 | 54 | 359 | 2.6 | 7.0 | 0.00 | 2.27 | 0.00 | 95 | 1016.3 |
| 20260502091500 | 55 | 21 | 2.6 | 7.8 | 0.00 | 2.34 | 0.00 | 93 | 1015.8 |
| 20260502090706 | 55 | 30 | 3.5 | 9.6 | 0.00 | 2.35 | 0.00 | 93 | 1015.7 |
| 20260502090416 | 55 | 23 | 3.5 | 9.6 | 0.00 | 2.36 | 0.00 | 93 | 1015.5 |
| 20260502071515 | 55 | 23 | 4.3 | 8.7 | 0.00 | 2.65 | 0.00 | 98 | 1015.5 |
| 20260502071012 | 55 | 37 | 4.3 | 8.7 | 0.00 | 2.67 | 0.00 | 98 | 1015.4 |
| 20260502070453 | 55 | 33 | 3.5 | 8.7 | 0.00 | 2.68 | 0.00 | 98 | 1015.5 |
| 20260502065947 | 55 | 343 | 4.3 | 11.3 | 0.00 | 2.69 | 0.00 | 98 | 1015.6 |
| 20260502065942 | 55 | 16 | 3.5 | 10.4 | 0.00 | 2.68 | 0.00 | 98 | 1015.6 |
| 20260502064942 | 55 | 41 | 5.2 | 12.2 | 0.00 | 2.70 | 0.00 | 99 | 1015.3 |
| 20260502064937 | 55 | 27 | 5.2 | 11.3 | 0.00 | 2.70 | 0.00 | 98 | 1015.5 |
| 20260502064201 | 55 | 49 | 7.0 | 17.4 | 0.00 | 2.71 | 0.00 | 99 | 1015.3 |
| 20260502063426 | 55 | 25 | 6.1 | 17.4 | 0.00 | 2.71 | 0.00 | 99 | 1015.2 |
| 20260502062923 | 55 | 21 | 5.2 | 11.3 | 0.00 | 2.71 | 0.00 | 99 | 1015.2 |
| 20260502062420 | 55 | 33 | 6.1 | 13.0 | 0.00 | 2.72 | 0.00 | 99 | 1015.3 |
| 20260502061910 | 55 | 41 | 6.1 | 13.0 | 0.00 | 2.72 | 0.00 | 99 | 1015.3 |
| 20260502061650 | 55 | 9 | 7.0 | 14.8 | 0.00 | 2.72 | 0.00 | 100 | 1015.2 |
| 20260502061110 | 55 | 13 | 7.0 | 14.8 | 0.00 | 2.72 | 0.00 | 100 | 1015.1 |
| 20260502060314 | 55 | 359 | 7.0 | 14.8 | 0.00 | 2.72 | 0.00 | 100 | 1015.1 |
| 20260502055748 | 55 | 31 | 5.2 | 14.8 | 0.00 | 2.73 | 0.00 | 100 | 1015.0 |
| 20260502055243 | 55 | 349 | 6.1 | 13.9 | 0.00 | 2.74 | 0.00 | 100 | 1015.0 |
| 20260502054740 | 55 | 4 | 8.7 | 16.5 | 0.00 | 2.77 | 0.00 | 100 | 1015.1 |
| 20260502054238 | 55 | 33 | 7.8 | 16.5 | 0.00 | 2.81 | 0.00 | 100 | 1015.1 |
| 20260502054019 | 55 | 35 | 7.0 | 18.2 | 0.00 | 2.94 | 0.00 | 100 | 1015.1 |
| 20260502053949 | 55 | 58 | 4.3 | 16.5 | 0.00 | 2.83 | 0.00 | 100 | 1015.1 |
| 20260502053903 | 56 | 41 | 4.3 | 12.2 | 0.00 | 2.85 | 0.00 | 100 | 1015.1 |
| 20260502053822 | 56 | 23 | 6.1 | 12.2 | 0.00 | 2.90 | 0.00 | 100 | 1015.2 |
| 20260502052113 | 55 | 35 | 7.0 | 18.2 | 0.00 | 2.94 | 0.00 | 100 | 1015.1 |
| 20260502051818 | 56 | 4 | 7.8 | 18.2 | 0.00 | 2.95 | 0.00 | 100 | 1015.1 |
| 20260502051318 | 56 | 23 | 7.8 | 19.1 | 0.00 | 2.96 | 0.00 | 100 | 1015.0 |
| 20260502050518 | 56 | 22 | 7.8 | 19.1 | 0.00 | 2.97 | 0.00 | 100 | 1015.0 |
| 20260502045952 | 56 | 40 | 7.0 | 14.8 | 0.00 | 2.97 | 2.97 | 100 | 1015.1 |
| 20260502045426 | 56 | 46 | 7.0 | 15.6 | 0.00 | 2.97 | 2.97 | 100 | 1015.1 |
| 20260502045402 | 56 | 12 | 6.1 | 15.6 | 0.00 | 2.97 | 2.97 | 100 | 1015.2 |
| 20260502044332 | 56 | 25 | 6.1 | 15.6 | 0.00 | 2.97 | 2.97 | 100 | 1015.3 |
| 20260502043808 | 56 | 337 | 7.0 | 15.6 | 0.00 | 2.97 | 2.97 | 100 | 1015.2 |
| 20260502043239 | 56 | 25 | 8.7 | 18.2 | 0.00 | 2.97 | 2.97 | 100 | 1015.2 |
| 20260502042738 | 56 | 12 | 7.8 | 18.2 | 0.00 | 2.97 | 2.97 | 100 | 1015.1 |
| 20260502042210 | 56 | 29 | 6.1 | 13.0 | 0.00 | 2.97 | 2.97 | 100 | 1015.1 |
| 20260502041707 | 56 | 354 | 6.1 | 13.0 | 0.00 | 2.97 | 2.97 | 100 | 1015.1 |
| 20260502041139 | 56 | 22 | 6.1 | 14.8 | 0.01 | 2.97 | 2.97 | 100 | 1015.1 |
| 20260502040637 | 56 | 354 | 6.1 | 14.8 | 0.01 | 2.97 | 2.97 | 100 | 1015.1 |
| 20260502040109 | 56 | 23 | 5.2 | 12.2 | 0.01 | 2.97 | 2.97 | 100 | 1015.1 |
| 20260502035607 | 56 | 359 | 5.2 | 14.8 | 0.01 | 2.97 | 2.97 | 100 | 1015.1 |
| 20260502035040 | 56 | 4 | 6.1 | 14.8 | 0.01 | 2.97 | 2.97 | 100 | 1014.7 |
| 20260502034515 | 56 | 33 | 7.0 | 12.2 | 0.01 | 2.97 | 2.97 | 100 | 1014.7 |
| 20260502033948 | 56 | 31 | 7.0 | 13.0 | 0.01 | 2.97 | 2.97 | 100 | 1014.8 |
| 20260502033445 | 56 | 359 | 6.1 | 13.9 | 0.01 | 2.97 | 2.97 | 100 | 1014.8 |
| 20260502032917 | 56 | 31 | 6.1 | 13.9 | 0.01 | 2.97 | 2.97 | 100 | 1014.6 |
| 20260502032415 | 56 | 354 | 4.3 | 13.0 | 0.01 | 2.97 | 2.97 | 100 | 1014.2 |
| 20260502031846 | 56 | 10 | 6.1 | 12.2 | 0.01 | 2.97 | 2.97 | 100 | 1014.2 |
| 20260502031613 | 56 | 354 | 6.1 | 12.2 | 0.01 | 2.96 | 2.97 | 100 | 1013.8 |
| 20260502030839 | 56 | 8 | 7.0 | 10.4 | 0.01 | 2.96 | 2.96 | 100 | 1013.7 |
| 20260502030335 | 56 | 12 | 7.8 | 16.5 | 0.02 | 2.96 | 2.96 | 100 | 1013.5 |
| 20260502025833 | 56 | 37 | 7.8 | 16.5 | 0.03 | 2.96 | 2.96 | 100 | 1013.5 |
| 20260502025306 | 56 | 354 | 7.8 | 16.5 | 0.03 | 2.96 | 2.96 | 100 | 1013.7 |
| 20260502025009 | 57 | 26 | 7.0 | 16.5 | 0.03 | 2.96 | 2.96 | 100 | 1013.6 |
| 20260502024236 | 57 | 8 | 7.0 | 14.8 | 0.03 | 2.96 | 2.96 | 100 | 1013.4 |
| 20260502023710 | 57 | 37 | 6.1 | 13.0 | 0.03 | 2.96 | 2.96 | 100 | 1013.3 |
| 20260502023143 | 57 | 14 | 6.1 | 13.0 | 0.04 | 2.96 | 2.96 | 100 | 1013.3 |
| 20260502022639 | 57 | 10 | 5.2 | 13.0 | 0.04 | 2.96 | 2.96 | 100 | 1013.3 |
| 20260502022137 | 58 | 16 | 5.2 | 10.4 | 0.05 | 2.96 | 2.96 | 100 | 1013.6 |
| 20260502021634 | 58 | 25 | 7.0 | 16.5 | 0.05 | 2.95 | 2.96 | 100 | 1013.5 |
| 20260502021108 | 58 | 14 | 6.1 | 16.5 | 0.06 | 2.95 | 2.95 | 100 | 1013.3 |
| 20260502020610 | 58 | 41 | 4.3 | 13.0 | 0.06 | 2.94 | 2.94 | 100 | 1013.2 |
| 20260502020305 | 58 | 13 | 3.5 | 9.6 | 0.06 | 2.94 | 2.94 | 100 | 1013.2 |
| 20260502015507 | 58 | 8 | 4.3 | 9.6 | 0.05 | 2.93 | 2.93 | 100 | 1013.3 |
| 20260502014947 | 58 | 54 | 5.2 | 13.0 | 0.05 | 2.93 | 2.93 | 100 | 1013.1 |
| 20260502014415 | 58 | 4 | 6.1 | 13.0 | 0.06 | 2.93 | 2.93 | 100 | 1012.8 |
| 20260502013914 | 58 | 16 | 6.1 | 13.0 | 0.06 | 2.93 | 2.93 | 100 | 1012.6 |
| 20260502013412 | 58 | 16 | 5.2 | 15.6 | 0.05 | 2.92 | 2.92 | 100 | 1012.4 |
| 20260502012847 | 58 | 14 | 5.2 | 15.6 | 0.05 | 2.92 | 2.92 | 100 | 1012.2 |
| 20260502012335 | 58 | 27 | 6.1 | 15.6 | 0.06 | 2.92 | 2.92 | 100 | 1012.2 |
| 20260502011835 | 58 | 354 | 5.2 | 15.6 | 0.05 | 2.91 | 2.91 | 100 | 1012.0 |
| 20260502011309 | 58 | 4 | 5.2 | 12.2 | 0.05 | 2.89 | 2.89 | 100 | 1012.3 |
| 20260502010744 | 58 | 359 | 5.2 | 13.0 | 0.05 | 2.88 | 2.88 | 100 | 1012.6 |
| 20260502010228 | 58 | 349 | 5.2 | 13.0 | 0.08 | 2.88 | 2.88 | 100 | 1012.5 |
| 20260502005959 | 59 | 348 | 6.1 | 12.2 | 0.09 | 2.88 | 2.88 | 100 | 1012.1 |
| 20260502005225 | 59 | 359 | 7.0 | 13.0 | 0.11 | 2.88 | 2.88 | 100 | 1011.7 |
| 20260502004724 | 59 | 21 | 7.0 | 16.5 | 0.10 | 2.87 | 2.88 | 100 | 1011.3 |
| 20260502004221 | 59 | 339 | 7.0 | 16.5 | 0.11 | 2.87 | 2.87 | 100 | 1011.1 |
| 20260502003723 | 59 | 354 | 6.1 | 13.9 | 0.11 | 2.87 | 2.87 | 100 | 1011.1 |
| 20260502003203 | 59 | 25 | 5.2 | 13.9 | 0.14 | 2.87 | 2.87 | 100 | 1010.9 |
| 20260502002651 | 59 | 349 | 5.2 | 10.4 | 0.15 | 2.87 | 2.87 | 100 | 1011.1 |
| 20260502002152 | 59 | 33 | 6.1 | 13.0 | 0.15 | 2.86 | 2.86 | 100 | 1011.3 |
| 20260502001656 | 59 | 354 | 6.1 | 13.0 | 0.16 | 2.85 | 2.85 | 100 | 1011.3 |
| 20260502001141 | 59 | 35 | 6.1 | 13.9 | 0.17 | 2.84 | 2.84 | 100 | 1011.0 |
| 20260502000648 | 59 | 4 | 6.1 | 13.9 | 0.18 | 2.83 | 2.83 | 100 | 1011.0 |
| 20260502000137 | 59 | 19 | 6.1 | 11.3 | 0.15 | 2.80 | 2.80 | 100 | 1011.4 |
| 20260501235852 | 59 | 27 | 5.2 | 11.3 | 0.13 | 2.78 | 2.78 | 100 | 1011.4 |
| 20260501235058 | 59 | 18 | 5.2 | 12.2 | 0.12 | 2.77 | 2.77 | 100 | 1011.2 |
| 20260501234556 | 59 | 348 | 7.0 | 16.5 | 0.11 | 2.76 | 2.76 | 100 | 1010.5 |
| 20260501234334 | 59 | 45 | 8.7 | 16.5 | 0.11 | 2.76 | 2.76 | 100 | 1009.8 |
| 20260501233801 | 59 | 48 | 8.7 | 18.2 | 0.10 | 2.75 | 2.75 | 100 | 1010.0 |
| 20260501233028 | 59 | 43 | 7.0 | 18.2 | 0.07 | 2.72 | 2.73 | 100 | 1010.1 |
| 20260501232525 | 59 | 37 | 7.0 | 14.8 | 0.07 | 2.72 | 2.72 | 100 | 1010.6 |
| 20260501232025 | 60 | 27 | 7.0 | 14.8 | 0.06 | 2.70 | 2.71 | 100 | 1011.0 |
| 20260501231511 | 60 | 12 | 7.0 | 14.8 | 0.04 | 2.68 | 2.69 | 100 | 1010.8 |
| 20260501231009 | 60 | 23 | 7.8 | 15.6 | 0.02 | 2.66 | 2.66 | 100 | 1010.6 |
| 20260501230509 | 60 | 338 | 6.1 | 15.6 | 0.03 | 2.65 | 2.65 | 100 | 1010.4 |
| 20260501230008 | 60 | 46 | 6.1 | 12.2 | 0.04 | 2.65 | 2.65 | 100 | 1010.5 |
| 20260501225459 | 60 | 21 | 8.7 | 18.2 | 0.05 | 2.65 | 2.65 | 100 | 1010.3 |
| 20260501224957 | 60 | 45 | 8.7 | 18.2 | 0.07 | 2.65 | 2.65 | 100 | 1009.8 |
| 20260501224454 | 60 | 59 | 7.8 | 17.4 | 0.08 | 2.65 | 2.65 | 100 | 1010.0 |
| 20260501223926 | 60 | 27 | 7.8 | 17.4 | 0.14 | 2.65 | 2.65 | 100 | 1010.0 |
| 20260501223437 | 60 | 345 | 8.7 | 20.0 | 0.25 | 2.65 | 2.65 | 100 | 1009.8 |
| 20260501222856 | 60 | 54 | 8.7 | 20.0 | 0.30 | 2.65 | 2.65 | 100 | 1009.8 |
| 20260501222624 | 61 | 40 | 7.8 | 18.2 | 0.33 | 2.64 | 2.64 | 100 | 1009.7 |
| 20260501221827 | 61 | 43 | 8.7 | 18.2 | 0.34 | 2.64 | 2.64 | 100 | 1010.1 |
| 20260501221554 | 61 | 41 | 7.8 | 16.5 | 0.35 | 2.64 | 2.64 | 100 | 1010.2 |
| 20260501220756 | 61 | 19 | 6.1 | 16.5 | 0.34 | 2.63 | 2.63 | 100 | 1010.3 |
| 20260501220255 | 61 | 12 | 6.1 | 13.9 | 0.32 | 2.61 | 2.61 | 100 | 1010.5 |
| 20260501215726 | 61 | 31 | 6.1 | 14.8 | 0.32 | 2.60 | 2.61 | 100 | 1010.2 |
| 20260501215223 | 61 | 348 | 7.0 | 14.8 | 0.32 | 2.59 | 2.59 | 100 | 1010.7 |
| 20260501214657 | 61 | 21 | 6.1 | 14.8 | 0.32 | 2.57 | 2.57 | 100 | 1010.2 |
| 20260501214404 | 61 | 27 | 4.3 | 10.4 | 0.32 | 2.55 | 2.55 | 100 | 1010.3 |
| 20260501213628 | 61 | 15 | 3.5 | 8.7 | 0.23 | 2.46 | 2.46 | 100 | 1010.1 |
| 20260501213125 | 61 | 37 | 3.5 | 14.8 | 0.16 | 2.37 | 2.37 | 100 | 1010.5 |
| 20260501212558 | 62 | 350 | 3.5 | 14.8 | 0.20 | 2.33 | 2.33 | 100 | 1010.7 |
| 20260501212056 | 62 | 17 | 3.5 | 7.8 | 0.19 | 2.30 | 2.30 | 100 | 1010.2 |
| 20260501211808 | 62 | 35 | 3.5 | 10.4 | 0.20 | 2.30 | 2.30 | 100 | 1010.0 |
| 20260501211025 | 62 | 33 | 4.3 | 10.4 | 0.19 | 2.29 | 2.29 | 100 | 1009.7 |
| 20260501210502 | 62 | 61 | 5.2 | 13.9 | 0.20 | 2.29 | 2.29 | 100 | 1008.9 |
| 20260501205956 | 62 | 48 | 5.2 | 14.8 | 0.19 | 2.28 | 2.28 | 100 | 1009.0 |
| 20260501205453 | 62 | 18 | 7.0 | 14.8 | 0.18 | 2.27 | 2.27 | 100 | 1008.8 |
| 20260501205225 | 62 | 53 | 7.8 | 14.8 | 0.17 | 2.26 | 2.26 | 100 | 1008.5 |
| 20260501204424 | 62 | 35 | 7.0 | 14.8 | 0.18 | 2.25 | 2.25 | 100 | 1008.8 |
| 20260501203927 | 62 | 13 | 6.1 | 11.3 | 0.16 | 2.23 | 2.23 | 100 | 1009.9 |
| 20260501203626 | 62 | 14 | 5.2 | 13.9 | 0.16 | 2.22 | 2.22 | 100 | 1010.2 |
| 20260501202852 | 62 | 62 | 4.3 | 13.9 | 0.13 | 2.18 | 2.18 | 100 | 1009.9 |
| 20260501202348 | 62 | 29 | 4.3 | 11.3 | 0.08 | 2.11 | 2.11 | 100 | 1009.9 |
| 20260501201844 | 62 | 345 | 5.2 | 11.3 | 0.08 | 2.11 | 2.11 | 100 | 1009.2 |
| 20260501201347 | 62 | 359 | 4.3 | 11.3 | 0.07 | 2.10 | 2.10 | 100 | 1008.8 |